This is the latest recevied weather packets stored in our database for station/object JS2WAD-13. If no packets are shown the sender has not sent any weather packets the latest 1 day(s).
| Time | Temp. | Humidity | Pressure | Rain* | Wind** | Luminosity | Snow |
|---|---|---|---|---|---|---|---|
| 1777966883 | 21.11° C | 44% | 911.2 hPa | 0 mm | 2.68 m/s, 154° | 424 W/m² | - |
| 1777966583 | 21.67° C | 44% | 911.1 hPa | 0 mm | 2.68 m/s, 147° | 441 W/m² | - |
| 1777966283 | 21.67° C | 44% | 911.1 hPa | 0 mm | 2.24 m/s, 150° | 461 W/m² | - |
| 1777965983 | 21.67° C | 44% | 911.1 hPa | 0 mm | 1.79 m/s, 151° | 478 W/m² | - |
| 1777965683 | 21.67° C | 45% | 911.1 hPa | 0 mm | 2.68 m/s, 143° | 499 W/m² | - |
| 1777965383 | 21.67° C | 44% | 911 hPa | 0 mm | 2.68 m/s, 162° | 515 W/m² | - |
| 1777965083 | 21.67° C | 44% | 911 hPa | 0 mm | 2.24 m/s, 145° | 536 W/m² | - |
| 1777964783 | 22.22° C | 44% | 910.9 hPa | 0 mm | 2.24 m/s, 158° | 548 W/m² | - |
| 1777964483 | 22.22° C | 44% | 910.9 hPa | 0 mm | 2.24 m/s, 161° | 570 W/m² | - |
| 1777964183 | 21.67° C | 44% | 910.9 hPa | 0 mm | 2.68 m/s, 141° | 587 W/m² | - |
| 1777963883 | 22.22° C | 45% | 910.8 hPa | 0 mm | 2.68 m/s, 313° | 475 W/m² | - |
| 1777963583 | 21.67° C | 45% | 910.9 hPa | 0 mm | 3.13 m/s, 152° | 153 W/m² | - |
| 1777963283 | 21.67° C | 45% | 910.8 hPa | 0 mm | 3.13 m/s, 141° | 95 W/m² | - |
| 1777962983 | 21.67° C | 46% | 910.7 hPa | 0 mm | 3.13 m/s, 148° | 95 W/m² | - |
| 1777962683 | 22.22° C | 45% | 910.7 hPa | 0 mm | 2.68 m/s, 152° | 97 W/m² | - |
| 1777962383 | 22.22° C | 45% | 910.8 hPa | 0 mm | 2.68 m/s, 145° | 102 W/m² | - |
| 1777962084 | 22.22° C | 45% | 910.9 hPa | 0 mm | 2.68 m/s, 152° | 98 W/m² | - |
| 1777961783 | 22.22° C | 45% | 910.8 hPa | 0 mm | 2.24 m/s, 139° | 100 W/m² | - |
| 1777961484 | 22.22° C | 45% | 910.8 hPa | 0 mm | 2.68 m/s, 144° | 100 W/m² | - |
| 1777961184 | 22.22° C | 44% | 910.7 hPa | 0 mm | 2.24 m/s, 172° | 104 W/m² | - |
| 1777960884 | 22.22° C | 44% | 910.6 hPa | 0 mm | 2.24 m/s, 359° | 148 W/m² | - |
| 1777960584 | 22.22° C | 44% | 910.6 hPa | 0 mm | 2.68 m/s, 135° | 621 W/m² | - |
| 1777960284 | 22.22° C | 43% | 910.5 hPa | 0 mm | 3.58 m/s, 145° | 789 W/m² | - |
| 1777959984 | 22.22° C | 43% | 910.6 hPa | 0 mm | 3.13 m/s, 158° | 795 W/m² | - |
| 1777959684 | 22.22° C | 43% | 910.6 hPa | 0 mm | 2.24 m/s, 174° | 805 W/m² | - |
* Rain latest hour (hover to see other rain measurements)
** Current wind speed in m/s (hover to see current wind gust speed)